CW7448 Weather Reports


Display with metric or nautical units.
time (UTC)temp
F
wind
direction
speed
MPH
gust
MPH
rain 1hr
in
rain 24hr
in
rain mn
in
humidity
%
barometer
mb
20180225071224 39 120 0.0 8.0 0.00 0.13 0.00 85 1023.6
20180225060222 40 143 0.0 15.0 0.00 0.13 0.00 87 1023.0
20180225055222 40 144 0.0 13.0 0.00 0.13 0.00 89 1023.1
20180225052221 40 142 0.0 7.0 0.00 0.13 0.00 90 1023.0
20180225051221 40 49 0.0 0.0 0.00 0.13 0.00 92 1023.1
20180225043219 40 37 2.0 3.0 0.00 0.13 0.13 95 1023.1
20180225042219 40 37 0.0 8.0 0.00 0.13 0.13 96 1023.2
20180225034218 40 5 0.0 0.0 0.00 0.13 0.13 97 1022.6
20180225032217 40 5 0.0 0.0 0.00 0.13 0.13 97 1022.5
20180225024216 40 5 0.0 0.0 0.00 0.13 0.13 97 1022.5
20180225023216 40 5 0.0 0.0 0.00 0.13 0.13 97 1022.5
20180225022216 40 5 0.0 0.0 0.00 0.13 0.13 97 1022.3
20180225020215 40 5 0.0 0.0 0.00 0.14 0.13 97 1022.2
20180225014214 40 5 0.0 3.0 0.00 0.14 0.13 96 1022.2
20180225013214 40 22 0.0 4.0 0.00 0.14 0.13 97 1022.5
20180225010213 40 278 0.0 0.0 0.00 0.14 0.13 96 1020.9
20180225005213 40 278 0.0 0.0 0.01 0.14 0.13 96 1020.6
20180225003212 40 278 0.0 0.0 0.01 0.15 0.13 96 1020.1
20180225000211 41 278 0.0 0.0 0.02 0.21 0.13 95 1020.9
20180224234211 41 278 0.0 2.0 0.01 0.25 0.12 95 1020.9
20180224232210 41 287 0.0 0.0 0.04 0.27 0.12 95 1021.1
20180224230210 41 287 0.0 0.0 0.04 0.27 0.11 94 1020.3
20180224220208 42 291 0.0 4.0 0.03 0.32 0.07 92 1019.9
20180224215208 43 291 0.0 1.0 0.02 0.31 0.06 90 1019.8
20180224214207 43 291 1.0 6.0 0.01 0.31 0.05 90 1020.0
20180224205206 45 268 0.0 16.0 0.01 0.32 0.04 87 1020.1
20180224203205 45 258 3.0 9.0 0.01 0.31 0.03 91 1019.8
20180224201205 46 267 3.0 4.0 0.03 0.31 0.03 92 1018.6
20180224194204 46 267 0.0 1.0 0.02 0.30 0.02 85 1018.4
20180224184232 50 300 12.0 14.0 0.00 0.28 0.00 58 1019.2
20180224183202 51 263 12.0 23.0 0.00 0.29 0.00 57 1019.1
20180224182231 52 304 5.0 15.0 0.00 0.29 0.00 57 1018.7
20180224181201 53 11 4.0 11.0 0.00 0.29 0.00 59 1018.4
20180224173200 54 334 6.0 19.0 0.00 0.29 0.00 59 1018.4
20180224172200 53 244 6.0 22.0 0.00 0.29 0.00 60 1018.4
20180224170229 55 229 8.0 19.0 0.00 0.29 0.00 61 1018.8
20180224165229 54 309 10.0 23.0 0.00 0.30 0.00 59 1018.5
20180224164229 54 282 23.0 23.0 0.00 0.30 0.00 61 1019.0
20180224155157 53 257 13.0 14.0 0.00 0.30 0.00 67 1018.9
20180224154227 52 281 6.0 17.0 0.00 0.30 0.00 67 1018.8
20180224153156 52 296 0.0 26.0 0.00 0.30 0.00 69 1018.8
20180224152156 52 271 15.0 18.0 0.00 0.30 0.00 69 1018.6
20180224150225 51 292 4.0 16.0 0.00 0.31 0.00 73 1018.9
20180224144225 50 281 7.0 27.0 0.00 0.35 0.00 74 1018.9
20180224134223 47 310 3.0 16.0 0.00 0.36 0.00 84 1018.9
20180224132223 45 273 0.0 21.0 0.00 0.36 0.00 89 1018.9
20180224125222 43 272 8.0 8.0 0.00 0.36 0.00 94 1018.8
20180224124221 42 11 4.0 14.0 0.00 0.36 0.00 94 1018.9
20180224123221 42 299 0.0 21.0 0.00 0.36 0.00 95 1019.0
20180224122221 42 257 3.0 16.0 0.00 0.36 0.00 96 1019.0
20180224121220 41 259 3.0 17.0 0.00 0.36 0.00 97 1018.8
20180224120221 41 334 11.0 19.0 0.00 0.36 0.00 98 1018.7
20180224115220 40 323 1.0 12.0 0.00 0.36 0.00 98 1018.3
20180224114220 40 310 6.0 14.0 0.00 0.36 0.00 98 1018.2
20180224113219 40 263 0.0 11.0 0.00 0.36 0.00 98 1018.2
20180224101217 40 273 0.0 5.0 0.00 0.36 0.00 97 1017.6
20180224092216 40 252 0.0 10.0 0.00 0.36 0.00 97 1017.0
20180224091215 40 288 9.0 13.0 0.00 0.36 0.00 97 1016.9
20180224084214 40 282 6.0 16.0 0.00 0.36 0.00 97 1017.1
20180224083214 40 278 7.0 15.0 0.00 0.36 0.00 97 1017.2
20180224082214 40 232 9.0 18.0 0.00 0.36 0.00 97 1017.1